#timestamp,LO_Frequency,Hit,StdDev 
1514584815.6,286046996.8,N
1514584835.5,286046999.2,N
1514584855.3,286046998.2,N
1514584875.1,286046999.9,N
1514584925.9,286047003.2,E
1514584935.8,286047000.1,N
1514584955.7,286046999.5,P
1514584975.5,286046997.2,P
1514584995.3,286046999.5,N
1514585015.2,286046999.1,N
1514585035.0,286046998.5,N
1514585035.9,286046998.5,N
1514585055.8,286046996.5,Y
1514585075.6,286046998.6,P
1514585095.4,286046998.7,P
1514585115.3,286046998.3,P
1514585135.1,286046998.7,Y
1514585155.9,286047000.5,P
1514585175.7,286047000.3,N
1514585195.5,286047000.8,N
1514585215.4,286046999.7,N
1514585235.2,286047001.2,N
1514585255.0,286047000.5,N
1514585255.9,286047000.5,N
1514585275.8,286046998.4,N
1514585295.6,286046998.5,N
1514585315.5,286047000.8,N
1514585335.3,286047001.1,N
1514585355.1,286046998.4,N
1514585375.9,286047001.2,N
1514585395.7,286047000.1,N
1514585415.5,286047000.3,N
1514585435.4,286047000.1,N
1514585455.2,286047000.0,N
1514585475.1,286047000.2,N
1514585476.0,286047000.2,N
1514585495.8,286047000.0,N
1514585515.6,286047000.5,N
1514585535.5,286046998.2,N
1514585585.3,286046999.2,E
1514585595.3,286046999.1,N
1514585615.1,286046998.7,P
1514585635.8,286046998.9,P
1514585655.7,286046998.7,Y
1514585675.5,286047000.4,P
1514585695.4,286047002.3,P
1514585715.2,286047001.8,N
1514585735.0,286047001.6,N
1514585735.9,286047001.6,N
1514585755.8,286047002.8,N
1514585775.6,286047002.4,N
1514585795.5,286047002.0,N
1514585815.3,286047000.1,N
1514585835.1,286046999.9,N
1514585855.9,286047002.4,N
1514585875.7,286046999.8,N
1514585895.5,286047000.3,N
1514585915.4,286047002.0,N
1514585935.2,286047001.9,N
1514585955.1,286047000.2,N
1514585956.0,286047000.2,N
1514585975.8,286047001.2,N
1514585995.6,286047000.3,N
1514586015.5,286047002.7,N
1514586035.3,286047002.8,N
1514586055.2,286047000.2,N
1514586075.9,286047000.6,N
1514586095.7,286046999.9,N
1514586115.6,286047001.2,N
1514586135.4,286047002.1,N
1514586155.2,286047002.6,N
1514586175.1,286047002.0,N
1514586176.0,286047002.0,N
1514586195.8,286047002.2,N
1514586215.7,286047000.1,N
1514586235.5,286047000.6,N
1514586255.3,286047002.5,N
1514586275.2,286047001.5,N
1514586295.0,286047001.5,N
1514586295.9,286047001.5,N
1514586315.8,286046999.8,N
1514586335.6,286047000.0,N
1514586355.4,286047002.4,N
1514586375.3,286047002.2,N
1514586395.1,286047004.4,Y
1514586415.8,286047002.8,P
1514586435.7,286047000.1,N
1514586455.5,286046999.9,N
1514586475.4,286047002.7,N
1514586495.2,286047004.3,Y
1514586515.0,286047002.3,P
1514586515.9,286047002.3,P
1514586535.8,286046999.8,N
1514586555.6,286047002.3,N
1514586575.5,286047000.3,N
1514586595.3,286046999.7,N
1514586615.1,286047001.0,N
1514586635.9,286047000.8,N
1514586655.7,286047000.7,N
1514586675.5,286047000.8,N
1514586695.4,286046999.7,N
1514586715.2,286047002.8,N
1514586735.1,286047002.2,N
1514586736.0,286047002.2,N
1514586755.8,286047002.6,N
1514586775.6,286046999.7,N
1514586795.5,286047000.0,N
1514586815.3,286047002.7,N
1514586835.2,286047001.8,N
1514586855.9,286047002.8,N
1514586875.7,286047002.4,N
1514586895.6,286047000.3,N
1514586915.4,286047001.8,N
1514586935.2,286047001.1,N
1514586955.1,286047000.3,N
1514586956.0,286047000.3,N
1514586975.8,286047000.6,N
1514586995.7,286047000.2,N
1514587015.5,286047001.6,N
1514587035.3,286047002.7,N
1514587055.2,286047002.6,N
1514587075.0,286046999.7,N
1514587075.9,286046999.7,N
1514587095.8,286047001.1,N
1514587115.6,286047000.8,N
1514587135.4,286046999.9,N
1514587155.3,286046999.9,N
1514587175.1,286047002.7,N
1514587195.8,286047000.3,N
1514587215.7,286046999.9,N
1514587235.5,286047002.1,N
1514587255.4,286046999.8,N
1514587275.2,286047000.0,N
1514587295.0,286047000.0,N
1514587295.9,286047000.0,N
1514587315.8,286047000.5,N
1514587335.6,286047002.2,N
1514587355.4,286047002.6,N
1514587375.3,286047002.8,N
1514587395.1,286047000.2,N
1514587415.9,286047001.9,N
1514587435.7,286047001.5,N
1514587455.5,286047002.1,N
1514587475.4,286047004.0,Y
1514587495.2,286047000.4,P
1514587515.0,286047000.8,N
1514587516.0,286047000.8,P
1514587535.8,286046999.7,N
1514587555.6,286047000.2,N
1514587575.5,286047000.0,N
1514587595.3,286047002.1,Y
1514587615.1,286047001.4,P
1514587635.9,286047002.3,P
1514587655.7,286047001.0,N
1514587675.6,286047001.0,N
1514587695.4,286047000.2,N
1514587715.2,286047000.4,N
1514587735.1,286047001.1,N
1514587736.0,286047001.1,N
1514587755.8,286046999.0,N
1514587775.6,286046998.2,N
1514587795.5,286046999.1,N
1514587815.3,286046999.6,N
1514587835.2,286046996.9,N
1514587855.9,286046997.9,N
1514587875.7,286046995.8,N
1514587895.6,286046998.0,N
1514587915.4,286046997.2,N
1514587935.3,286046997.5,N
1514587955.1,286046994.9,N
1514587956.0,286046994.9,N
1514587975.8,286046996.0,N
1514587995.7,286046995.9,N
1514588015.5,286046995.9,N
1514588035.3,286046993.7,N
1514588055.2,286046995.7,N
1514588075.0,286046996.3,N
1514588075.9,286046996.3,N
1514588095.8,286046996.0,N
1514588115.6,286046995.9,N
1514588135.4,286046996.2,N
1514588155.3,286046996.1,N
1514588175.1,286046996.2,N
1514588195.9,286046993.6,Y
1514588215.7,286046997.2,P
1514588235.5,286046997.2,P
1514588255.4,286046997.0,P
1514588275.2,286046998.8,Y
1514588295.0,286047000.1,P
1514588296.0,286047000.1,N
1514588315.8,286047000.2,N
1514588335.6,286047001.5,N
1514588355.5,286047002.8,N
1514588375.3,286047002.4,N
1514588395.1,286047000.2,N
